GW1821 Weather Reports


Display with metric or nautical units.
time (UTC)temp
F
wind
direction
speed
MPH
gust
MPH
rain 1hr
in
rain 24hr
in
rain mn
in
humidity
%
barometer
mb
20260905204545 86 311 2.0 6.0 0.00 0.00 0.00 71 1013.8
20260905204045 85 17 1.0 6.0 0.00 0.00 0.00 74 1013.8
20260905203542 85 238 1.0 3.0 0.00 0.00 0.00 72 1014.0
20260905203039 85 349 2.0 8.0 0.00 0.00 0.00 72 1014.0
20260905202533 85 348 2.0 8.0 0.00 0.00 0.00 72 1014.0
20260905202028 84 342 2.0 8.0 0.00 0.00 0.00 71 1014.1
20260905201531 84 17 1.0 5.0 0.00 0.00 0.00 74 1014.3
20260905201021 84 5 1.0 3.0 0.00 0.00 0.00 71 1014.4
20260905200511 84 5 1.0 3.0 0.00 0.00 0.00 74 1014.6
20260905200013 84 16 1.0 3.0 0.00 0.00 0.00 73 1014.7
20260905195731 84 355 1.0 3.0 0.00 0.00 0.00 74 1014.7
20260905195001 84 21 1.0 4.0 0.00 0.00 0.00 74 1014.7
20260905194503 83 37 1.0 4.0 0.00 0.00 0.00 74 1014.8
20260905193954 83 49 1.0 3.0 0.00 0.00 0.00 77 1014.8
20260905193456 82 144 2.0 5.0 0.00 0.00 0.00 78 1014.8
20260905193427 81 28 2.0 8.0 0.00 0.00 0.00 77 1014.8
20260905192443 80 32 2.0 8.0 0.00 0.00 0.00 79 1014.9
20260905192156 80 166 2.0 6.0 0.00 0.00 0.00 80 1014.9
20260905191425 79 160 1.0 6.0 0.00 0.00 0.00 80 1014.9
20260905190922 79 159 1.0 5.0 0.00 0.00 0.00 80 1014.9
20260905190419 79 155 1.0 5.0 0.00 0.00 0.00 80 1014.9
20260905185919 79 193 1.0 4.0 0.00 0.00 0.00 82 1014.9
20260905185637 78 248 1.0 5.0 0.00 0.00 0.00 83 1014.9
20260905184915 77 17 1.0 5.0 0.00 0.00 0.00 86 1015.0
20260905184645 76 330 2.0 4.0 0.00 0.00 0.00 86 1015.1
20260905183914 75 35 1.0 4.0 0.00 0.00 0.00 86 1015.3
20260905183414 75 216 1.0 3.0 0.00 0.00 0.00 87 1015.1
20260905183132 75 218 1.0 8.0 0.00 0.00 0.00 87 1015.3
20260905182413 75 217 1.0 8.0 0.00 0.00 0.00 86 1015.3
20260905182353 75 165 2.0 8.0 0.00 0.00 0.00 88 1015.3
20260905181408 75 136 2.0 8.0 0.00 0.00 0.00 89 1015.4
20260905180901 74 173 1.0 5.0 0.00 0.00 0.00 91 1015.4
20260905180340 73 172 1.0 3.0 0.00 0.00 0.00 93 1015.4
20260905175837 73 173 1.0 6.0 0.00 0.00 0.00 94 1015.5
20260905175601 73 173 2.0 6.0 0.00 0.00 0.00 94 1015.6
20260905174832 73 196 2.0 6.0 0.00 0.00 0.00 95 1015.6
20260905174818 72 162 1.0 5.0 0.00 0.00 0.00 95 1015.7
20260905173825 72 106 0.0 3.0 0.00 0.00 0.00 95 1015.6
20260905173325 72 80 1.0 3.0 0.00 0.00 0.00 95 1015.7
20260905173040 72 150 1.0 6.0 0.00 0.00 0.00 96 1015.7
20260905172315 71 148 1.0 6.0 0.00 0.00 0.00 96 1015.5
20260905171813 71 159 1.0 5.0 0.00 0.00 0.00 96 1015.5
20260905171312 71 61 1.0 5.0 0.00 0.00 0.00 96 1015.5
20260905170816 71 38 1.0 6.0 0.00 0.00 0.00 96 1015.6
20260905170525 71 15 1.0 6.0 0.00 0.00 0.00 96 1015.7
20260905165752 71 177 1.0 4.0 0.00 0.00 0.00 96 1015.8
20260905165250 71 177 1.0 3.0 0.00 0.00 0.00 96 1015.9
20260905164749 70 105 1.0 3.0 0.00 0.00 0.00 96 1016.0
20260905164245 70 42 1.0 5.0 0.00 0.00 0.00 96 1016.0
20260905163731 70 42 1.0 5.0 0.00 0.00 0.00 96 1015.8
20260905163226 70 53 0.0 3.0 0.00 0.00 0.00 96 1015.8
20260905162721 70 351 0.0 3.0 0.00 0.00 0.00 96 1015.7
20260905162222 69 5 0.0 3.0 0.00 0.00 0.00 96 1015.8
20260905161709 69 293 0.0 1.0 0.00 0.00 0.00 96 1016.0
20260905161148 69 292 0.0 1.0 0.00 0.00 0.00 96 1016.1
20260905160646 69 265 0.0 1.0 0.00 0.00 0.00 96 1016.1
20260905160402 69 243 0.0 3.0 0.00 0.00 0.00 96 1016.2
20260905155638 69 243 0.0 3.0 0.00 0.00 0.00 96 1016.1
20260905155138 69 243 0.0 2.0 0.00 0.00 0.00 96 1016.1
20260905154631 69 243 0.0 2.0 0.00 0.00 0.00 96 1016.1
20260905154123 69 243 0.0 2.0 0.00 0.00 0.00 96 1016.1
20260905153612 69 243 0.0 2.0 0.00 0.00 0.00 96 1016.2
20260905153105 69 242 0.0 5.0 0.00 0.00 0.00 96 1015.8
20260905152555 68 257 0.0 5.0 0.00 0.00 0.00 96 1015.5
20260905152311 68 246 1.0 5.0 0.00 0.00 0.00 96 1015.5
20260905151550 68 35 0.0 5.0 0.00 0.00 0.00 96 1015.4
20260905151307 67 0 0.0 2.0 0.00 0.00 0.00 96 1015.4
20260905150522 67 0 1.0 3.0 0.00 0.00 0.00 96 1015.4
20260905150016 67 350 1.0 3.0 0.00 0.00 0.00 96 1015.4
20260905145516 67 46 0.0 1.0 0.00 0.00 0.00 96 1015.4
20260905145015 67 46 0.0 4.0 0.00 0.00 0.00 96 1015.4
20260905144512 67 46 1.0 4.0 0.00 0.00 0.00 96 1015.5
20260905144012 67 54 1.0 4.0 0.00 0.00 0.00 96 1015.5
20260905143946 67 0 1.0 4.0 0.00 0.00 0.00 96 1015.5
20260905142957 67 9 1.0 4.0 0.00 0.00 0.00 96 1015.5
20260905142458 67 355 1.0 3.0 0.00 0.00 0.00 96 1015.5
20260905141955 66 48 0.0 3.0 0.00 0.00 0.00 96 1015.6
20260905141453 66 48 0.0 3.0 0.00 0.00 0.00 96 1015.6
20260905140946 66 5 0.0 3.0 0.00 0.00 0.00 96 1015.7
20260905140438 66 5 0.0 3.0 0.00 0.00 0.00 96 1015.7
20260905135925 66 5 0.0 3.0 0.00 0.00 0.00 96 1015.7
20260905135422 66 0 0.0 3.0 0.00 0.00 0.00 96 1015.7
20260905134920 66 0 0.0 3.0 0.00 0.00 0.00 96 1015.6
20260905134416 66 0 1.0 4.0 0.00 0.00 0.00 96 1015.5
20260905133914 66 0 1.0 4.0 0.00 0.00 0.00 96 1015.5
20260905133417 66 355 1.0 4.0 0.00 0.00 0.00 96 1015.5
20260905133349 66 355 1.0 5.0 0.00 0.00 0.00 96 1015.4
20260905132412 66 347 1.0 5.0 0.00 0.00 0.00 96 1015.3
20260905131908 65 42 1.0 4.0 0.00 0.00 0.00 96 1015.0
20260905131359 65 15 1.0 5.0 0.00 0.00 0.00 96 1014.8
20260905130854 65 19 0.0 5.0 0.00 0.00 0.00 96 1014.6
20260905130358 65 331 0.0 3.0 0.00 0.00 0.00 96 1014.5
20260905125823 65 29 1.0 6.0 0.00 0.00 0.00 96 1014.4
20260905125322 65 27 1.0 6.0 0.00 0.00 0.00 96 1014.4
20260905124823 65 344 1.0 4.0 0.00 0.00 0.00 96 1014.4
20260905124318 65 15 1.0 4.0 0.00 0.00 0.00 96 1014.0
20260905123816 65 14 1.0 4.0 0.00 0.00 0.00 96 1014.2
20260905123313 65 344 0.0 4.0 0.00 0.00 0.00 96 1014.2
20260905123021 65 0 0.0 3.0 0.00 0.00 0.00 96 1013.9
20260905122522 65 347 1.0 4.0 0.00 0.00 0.00 96 1013.9
20260905121757 65 346 1.0 4.0 0.00 0.00 0.00 96 1014.0
20260905121258 65 355 0.0 4.0 0.00 0.00 0.00 96 1014.1
20260905121011 65 355 0.0 5.0 0.00 0.00 0.00 96 1014.1
20260905120228 65 355 1.0 5.0 0.00 0.00 0.00 96 1014.3
20260905115724 65 335 1.0 5.0 0.00 0.00 0.00 96 1014.3
20260905115212 65 43 1.0 5.0 0.00 0.00 0.00 95 1014.2
20260905114714 65 13 1.0 4.0 0.00 0.00 0.00 95 1014.2
20260905114204 65 339 2.0 4.0 0.00 0.00 0.00 95 1014.2
20260905113657 65 11 2.0 4.0 0.00 0.00 0.00 95 1014.2
20260905113151 65 342 2.0 4.0 0.00 0.00 0.00 95 1014.2
20260905112643 65 22 2.0 4.0 0.00 0.00 0.00 95 1014.2
20260905112140 65 341 1.0 4.0 0.00 0.00 0.00 95 1014.1
20260905111902 65 29 0.0 4.0 0.00 0.00 0.00 95 1013.9
20260905111138 65 33 1.0 4.0 0.00 0.00 0.00 95 1013.9
20260905110637 65 5 1.0 4.0 0.00 0.00 0.00 95 1013.8
20260905110350 65 344 0.0 3.0 0.00 0.00 0.00 95 1013.8
20260905105606 65 344 0.0 3.0 0.00 0.00 0.00 95 1013.8
20260905105059 65 329 1.0 3.0 0.00 0.00 0.00 95 1013.9
20260905104550 65 329 1.0 3.0 0.00 0.00 0.00 95 1014.0
20260905104048 65 38 1.0 3.0 0.00 0.00 0.00 95 1013.8
20260905103549 65 37 1.0 3.0 0.00 0.00 0.00 95 1013.8
20260905103048 65 38 0.0 3.0 0.00 0.00 0.00 95 1013.8
20260905102540 65 38 1.0 3.0 0.00 0.00 0.00 95 1013.8
20260905102038 65 38 1.0 3.0 0.00 0.00 0.00 95 1013.6
20260905101537 65 42 1.0 3.0 0.00 0.00 0.00 95 1013.3
20260905101038 65 11 1.0 5.0 0.00 0.00 0.00 95 1013.2
20260905100534 65 12 1.0 5.0 0.00 0.00 0.00 95 1013.2
20260905100031 65 9 1.0 5.0 0.00 0.00 0.00 95 1013.1
20260905095530 65 13 1.0 5.0 0.00 0.00 0.00 95 1013.1
20260905095031 65 54 1.0 4.0 0.00 0.00 0.00 95 1013.0
20260905094530 65 22 1.0 8.0 0.00 0.00 0.00 95 1012.9
20260905094017 65 327 1.0 8.0 0.00 0.00 0.00 94 1012.9
20260905093515 64 348 1.0 5.0 0.00 0.00 0.00 94 1012.9
20260905093013 64 28 1.0 5.0 0.00 0.00 0.00 94 1012.9
20260905092516 64 17 1.0 7.0 0.00 0.00 0.00 94 1013.0
20260905092014 64 12 1.0 7.0 0.00 0.00 0.00 93 1012.9
20260905091511 65 25 2.0 6.0 0.00 0.00 0.00 92 1013.1
20260905091013 65 69 1.0 4.0 0.00 0.00 0.00 92 1013.2
20260905090459 66 355 1.0 4.0 0.00 0.00 0.00 93 1013.2
20260905085956 66 60 1.0 4.0 0.00 0.00 0.00 92 1013.5
20260905085440 66 32 1.0 5.0 0.00 0.00 0.00 93 1013.6
20260905084942 66 33 1.0 5.0 0.00 0.00 0.00 93 1013.6
20260905084428 66 5 1.0 4.0 0.00 0.00 0.00 93 1013.7
20260905084136 66 5 1.0 4.0 0.00 0.00 0.00 92 1013.7
20260905083411 66 30 1.0 3.0 0.00 0.00 0.00 93 1013.7
20260905082855 66 34 1.0 3.0 0.00 0.00 0.00 92 1013.6
20260905082316 66 13 1.0 4.0 0.00 0.00 0.00 92 1013.7
20260905081806 66 13 1.0 4.0 0.00 0.00 0.00 92 1013.7
20260905081301 66 60 1.0 4.0 0.00 0.00 0.00 92 1013.7
20260905080751 66 33 1.0 4.0 0.00 0.00 0.00 92 1013.8
20260905080602 66 33 1.0 4.0 0.00 0.00 0.00 92 1013.8
20260905075243 66 25 1.0 4.0 0.00 0.00 0.00 92 1013.8
20260905075000 66 44 0.0 3.0 0.00 0.00 0.00 92 1013.7
20260905074232 66 42 1.0 4.0 0.00 0.00 0.00 92 1013.8
20260905073732 66 44 1.0 6.0 0.00 0.00 0.00 92 1013.9
20260905073228 66 57 1.0 6.0 0.00 0.00 0.00 92 1013.8
20260905072723 66 5 2.0 6.0 0.00 0.00 0.00 92 1013.7
20260905072705 66 346 2.0 8.0 0.00 0.00 0.00 92 1013.7
20260905071723 66 25 2.0 8.0 0.00 0.00 0.00 92 1013.5
20260905071448 66 30 2.0 6.0 0.00 0.00 0.00 92 1013.5
20260905070719 66 355 1.0 5.0 0.00 0.00 0.00 92 1013.6
20260905070220 66 42 1.0 5.0 0.00 0.00 0.00 92 1013.6
20260905065652 66 44 1.0 5.0 0.00 0.00 0.00 92 1013.5
20260905065147 67 40 1.0 5.0 0.00 0.00 0.00 92 1013.6
20260905064647 67 69 1.0 5.0 0.00 0.00 0.00 92 1013.7
20260905064400 67 36 1.0 5.0 0.00 0.00 0.00 92 1013.7
20260905063639 67 35 1.0 4.0 0.00 0.00 0.00 92 1013.7
20260905063134 67 36 2.0 7.0 0.00 0.00 0.00 92 1013.6
20260905062604 67 9 2.0 7.0 0.00 0.00 0.00 92 1013.7
20260905062102 67 23 2.0 8.0 0.00 0.00 0.00 92 1013.6
20260905061603 67 0 2.0 9.0 0.00 0.00 0.00 92 1013.6
20260905061320 67 5 2.0 9.0 0.00 0.00 0.00 92 1013.6
20260905060558 67 327 3.0 9.0 0.00 0.00 0.00 92 1013.6
20260905060322 67 329 2.0 9.0 0.00 0.00 0.00 91 1013.6
20260905055557 67 0 1.0 5.0 0.00 0.00 0.00 92 1013.6
20260905055057 67 44 2.0 9.0 0.00 0.00 0.00 92 1013.6
20260905054553 67 40 2.0 10.0 0.00 0.00 0.00 92 1013.6
20260905054048 67 13 2.0 10.0 0.00 0.00 0.00 92 1013.5
20260905053547 67 29 2.0 6.0 0.00 0.00 0.00 91 1013.4
20260905053043 67 346 1.0 6.0 0.00 0.00 0.00 91 1013.4
20260905052543 67 5 1.0 6.0 0.00 0.00 0.00 91 1013.3
20260905052054 67 52 2.0 6.0 0.00 0.00 0.00 91 1013.3
20260905051531 67 36 2.0 6.0 0.00 0.00 0.00 91 1013.3
20260905051027 67 58 2.0 5.0 0.00 0.00 0.00 91 1013.3
20260905050511 67 22 2.0 6.0 0.00 0.00 0.00 91 1013.3
20260905050004 67 11 2.0 11.0 0.00 0.00 0.00 91 1013.4
20260905044955 67 48 2.0 11.0 0.00 0.00 0.00 90 1013.3
20260905044456 67 65 2.0 11.0 0.00 0.00 0.00 90 1013.2
20260905044221 67 5 1.0 8.0 0.00 0.00 0.00 90 1013.3
20260905043456 67 5 1.0 6.0 0.00 0.00 0.00 90 1013.3
20260905042946 67 0 1.0 6.0 0.00 0.00 0.00 90 1013.2
20260905042445 67 15 1.0 4.0 0.00 0.00 0.00 89 1013.2
20260905041944 67 31 1.0 5.0 0.00 0.00 0.00 89 1013.2
20260905041445 67 49 1.0 5.0 0.00 0.00 0.00 89 1013.2
20260905040943 67 19 1.0 5.0 0.00 0.00 0.00 89 1013.4
20260905040445 67 13 1.0 5.0 0.00 0.00 0.00 89 1013.5
20260905035943 67 31 1.0 8.0 0.00 0.00 0.00 89 1013.4
20260905035445 67 346 2.0 8.0 0.00 0.00 0.00 88 1013.3
20260905034947 68 34 2.0 8.0 0.00 0.00 0.00 88 1013.4
20260905034444 68 22 1.0 8.0 0.00 0.00 0.00 88 1013.3
20260905033940 68 11 1.0 6.0 0.00 0.00 0.00 88 1013.2
20260905033437 68 325 1.0 3.0 0.00 0.00 0.00 88 1013.1
20260905032941 68 0 1.0 6.0 0.00 0.00 0.00 88 1013.2
20260905032432 69 30 1.0 6.0 0.00 0.00 0.00 87 1013.2
20260905031931 69 39 1.0 6.0 0.00 0.00 0.00 87 1013.1
20260905031427 69 12 1.0 6.0 0.00 0.00 0.00 87 1013.2
20260905030929 69 25 1.0 5.0 0.00 0.00 0.00 87 1013.2
20260905030426 69 37 1.0 5.0 0.00 0.00 0.00 87 1013.1
20260905030144 70 116 1.0 5.0 0.00 0.00 0.00 87 1013.1
20260905025418 70 5 2.0 8.0 0.00 0.00 0.00 86 1013.1
20260905024918 70 31 2.0 8.0 0.00 0.00 0.00 86 1013.0
20260905024412 70 31 2.0 5.0 0.00 0.00 0.00 86 1013.0
20260905023912 70 22 2.0 5.0 0.00 0.00 0.00 86 1013.0
20260905023416 71 5 1.0 6.0 0.00 0.00 0.00 86 1013.0
20260905022905 71 30 1.0 6.0 0.00 0.00 0.00 86 1012.8
20260905022407 71 5 1.0 5.0 0.00 0.00 0.00 85 1012.8
20260905021850 71 327 2.0 7.0 0.00 0.00 0.00 85 1012.7
20260905021347 72 351 3.0 9.0 0.00 0.00 0.00 85 1012.6
20260905021103 72 15 2.0 9.0 0.00 0.00 0.00 84 1012.6
20260905020343 72 19 2.0 7.0 0.00 0.00 0.00 84 1012.6
20260905015843 73 5 2.0 9.0 0.00 0.00 0.00 84 1012.6
20260905015607 73 342 2.0 9.0 0.00 0.00 0.00 83 1012.5
20260905014836 73 30 2.0 6.0 0.00 0.00 0.00 83 1012.5
20260905014331 74 344 2.0 5.0 0.00 0.00 0.00 83 1012.4
20260905013822 74 5 2.0 6.0 0.00 0.00 0.00 83 1012.4
20260905013323 74 355 2.0 6.0 0.00 0.00 0.00 82 1012.4
20260905012819 75 9 2.0 6.0 0.00 0.00 0.00 82 1012.3
20260905012316 75 24 2.0 5.0 0.00 0.00 0.00 81 1012.2
20260905011817 75 5 2.0 5.0 0.00 0.00 0.00 81 1012.1
20260905011312 76 60 2.0 10.0 0.00 0.00 0.00 80 1012.0
20260905010806 76 66 3.0 10.0 0.00 0.00 0.00 80 1012.0
20260905010301 76 31 3.0 8.0 0.00 0.00 0.00 79 1012.0
20260905005758 77 17 3.0 8.0 0.00 0.00 0.00 79 1011.8
20260905005256 77 335 3.0 8.0 0.00 0.00 0.00 78 1011.7
20260905004754 78 30 2.0 8.0 0.00 0.00 0.00 78 1011.6
20260905004252 78 333 2.0 8.0 0.00 0.00 0.00 78 1011.8
20260905003751 79 330 2.0 6.0 0.00 0.00 0.00 77 1011.8
20260905003509 79 5 3.0 10.0 0.00 0.00 0.00 77 1011.7
20260905002747 79 331 3.0 10.0 0.00 0.00 0.00 76 1011.7
20260905002239 80 347 3.0 10.0 0.00 0.00 0.00 76 1011.6
20260905001834 80 333 3.0 10.0 0.00 0.00 0.00 75 1011.6
20260905000734 81 348 2.0 9.0 0.00 0.00 0.00 75 1011.2
20260905000226 81 5 2.0 9.0 0.00 0.00 0.00 74 1011.1
20260904235725 81 34 2.0 8.0 0.00 0.00 0.00 74 1011.1
20260904235224 82 331 2.0 8.0 0.00 0.00 0.00 74 1011.0
20260904234721 82 32 2.0 8.0 0.00 0.00 0.00 74 1011.1
20260904234212 82 347 3.0 6.0 0.00 0.00 0.00 74 1011.1
20260904233709 82 5 2.0 6.0 0.00 0.00 0.00 74 1011.1
20260904233208 83 0 2.0 7.0 0.00 0.00 0.00 73 1011.0
20260904232705 83 19 2.0 7.0 0.00 0.00 0.00 72 1011.1
20260904232146 83 13 3.0 9.0 0.00 0.00 0.00 72 1011.1
20260904231640 84 5 3.0 9.0 0.00 0.00 0.00 72 1011.0
20260904231135 84 30 3.0 9.0 0.00 0.00 0.00 71 1010.9
20260904230636 84 347 3.0 9.0 0.00 0.00 0.00 71 1010.9
20260904230128 85 346 2.0 6.0 0.00 0.00 0.00 70 1010.9
20260904225610 85 17 2.0 6.0 0.00 0.00 0.00 69 1010.9
20260904225107 85 55 2.0 8.0 0.00 0.00 0.00 69 1010.9
20260904224606 85 344 3.0 8.0 0.00 0.00 0.00 69 1010.9
20260904224107 86 344 3.0 9.0 0.00 0.00 0.00 69 1010.8
20260904223607 86 36 2.0 9.0 0.00 0.00 0.00 68 1010.7
20260904223320 86 43 3.0 8.0 0.00 0.00 0.00 68 1010.7
20260904222557 87 346 3.0 8.0 0.00 0.00 0.00 66 1010.6
20260904222058 88 5 2.0 9.0 0.00 0.00 0.00 66 1010.5
20260904221556 89 36 2.0 9.0 0.00 0.00 0.00 64 1010.5
20260904221312 89 43 2.0 6.0 0.00 0.00 0.00 63 1010.5
20260904220550 89 9 2.0 7.0 0.00 0.00 0.00 63 1010.4
20260904220051 90 334 3.0 10.0 0.00 0.00 0.00 64 1010.3
20260904215546 90 344 3.0 10.0 0.00 0.00 0.00 66 1010.3
20260904215046 89 5 2.0 8.0 0.00 0.00 0.00 65 1010.2
20260904214550 89 51 2.0 6.0 0.00 0.00 0.00 65 1010.2
20260904214043 89 325 1.0 6.0 0.00 0.00 0.00 64 1010.2
20260904213539 89 27 2.0 7.0 0.00 0.00 0.00 66 1010.3
20260904213041 89 182 2.0 7.0 0.00 0.00 0.00 65 1010.3
20260904212540 89 5 1.0 5.0 0.00 0.00 0.00 66 1010.2
20260904212041 89 35 2.0 7.0 0.00 0.00 0.00 67 1010.3
20260904211541 89 46 1.0 7.0 0.00 0.00 0.00 65 1010.3
20260904211026 89 355 1.0 5.0 0.00 0.00 0.00 66 1010.4
20260904210520 89 339 2.0 6.0 0.00 0.00 0.00 66 1010.4
20260904210231 89 16 2.0 9.0 0.00 0.00 0.00 66 1010.4
20260904205737 89 22 2.0 9.0 0.00 0.00 0.00 65 1010.5